| time (UTC) | temp F | wind direction | speed MPH | gust MPH | rain 1hr in | rain 24hr in | rain mn in | humidity % | barometer mb |
| 20260906090406 | 71 | 234 | 0.0 | 0.0 | 0.00 | 0.00 | 0.00 | 97 | 1011.4 |
| 20260906085900 | 71 | 234 | 0.0 | 0.0 | 0.00 | 0.00 | 0.00 | 97 | 1011.4 |
| 20260906085400 | 71 | 234 | 0.0 | 0.0 | 0.00 | 0.00 | 0.00 | 97 | 1011.5 |
| 20260906084859 | 71 | 234 | 0.0 | 0.0 | 0.00 | 0.00 | 0.00 | 97 | 1011.4 |
| 20260906084354 | 71 | 234 | 1.0 | 1.0 | 0.00 | 0.00 | 0.00 | 97 | 1011.4 |
| 20260906083848 | 71 | 234 | 0.0 | 0.0 | 0.00 | 0.00 | 0.00 | 97 | 1011.3 |
| 20260906083344 | 71 | 234 | 0.0 | 0.0 | 0.00 | 0.00 | 0.00 | 97 | 1011.2 |
| 20260906082843 | 71 | 234 | 0.0 | 0.0 | 0.00 | 0.00 | 0.00 | 97 | 1011.5 |
| 20260906082338 | 71 | 234 | 0.0 | 0.0 | 0.00 | 0.00 | 0.00 | 97 | 1011.4 |
| 20260906081834 | 71 | 234 | 0.0 | 0.0 | 0.00 | 0.00 | 0.00 | 97 | 1011.6 |
| 20260906081330 | 71 | 234 | 0.0 | 0.0 | 0.00 | 0.00 | 0.00 | 97 | 1011.7 |
| 20260906080826 | 71 | 234 | 0.0 | 0.0 | 0.00 | 0.00 | 0.00 | 96 | 1011.6 |
| 20260906080322 | 71 | 234 | 0.0 | 0.0 | 0.00 | 0.00 | 0.00 | 96 | 1011.5 |
| 20260906075822 | 71 | 234 | 0.0 | 0.0 | 0.00 | 0.00 | 0.00 | 96 | 1011.6 |
| 20260906075322 | 71 | 234 | 0.0 | 0.0 | 0.00 | 0.00 | 0.00 | 96 | 1011.3 |
| 20260906074817 | 71 | 234 | 0.0 | 0.0 | 0.00 | 0.00 | 0.00 | 96 | 1011.4 |
| 20260906074317 | 71 | 234 | 0.0 | 0.0 | 0.00 | 0.00 | 0.00 | 96 | 1011.3 |
| 20260906073816 | 71 | 234 | 0.0 | 0.0 | 0.00 | 0.00 | 0.00 | 96 | 1011.4 |
| 20260906073311 | 71 | 234 | 0.0 | 0.0 | 0.00 | 0.00 | 0.00 | 95 | 1011.3 |
| 20260906072807 | 71 | 234 | 0.0 | 0.0 | 0.00 | 0.00 | 0.00 | 95 | 1011.5 |
| 20260906072305 | 71 | 234 | 0.0 | 0.0 | 0.00 | 0.00 | 0.00 | 95 | 1011.4 |
| 20260906071758 | 71 | 234 | 0.0 | 0.0 | 0.00 | 0.00 | 0.00 | 95 | 1011.6 |
| 20260906071258 | 72 | 234 | 0.0 | 0.0 | 0.00 | 0.00 | 0.00 | 94 | 1011.3 |
| 20260906070755 | 72 | 234 | 0.0 | 0.0 | 0.00 | 0.00 | 0.00 | 94 | 1011.5 |
| 20260906070250 | 72 | 234 | 0.0 | 0.0 | 0.00 | 0.00 | 0.00 | 94 | 1011.6 |
| 20260906065749 | 72 | 234 | 0.0 | 0.0 | 0.00 | 0.00 | 0.00 | 94 | 1011.6 |
| 20260906065245 | 72 | 234 | 0.0 | 0.0 | 0.00 | 0.00 | 0.00 | 94 | 1011.5 |
| 20260906064741 | 72 | 234 | 0.0 | 0.0 | 0.00 | 0.00 | 0.00 | 94 | 1011.4 |
| 20260906064237 | 72 | 234 | 0.0 | 0.0 | 0.00 | 0.00 | 0.00 | 94 | 1011.4 |
| 20260906063731 | 72 | 234 | 1.0 | 1.0 | 0.00 | 0.00 | 0.00 | 94 | 1011.3 |
| 20260906063227 | 72 | 234 | 1.0 | 1.0 | 0.00 | 0.00 | 0.00 | 94 | 1011.3 |
| 20260906062722 | 72 | 234 | 0.0 | 0.0 | 0.00 | 0.00 | 0.00 | 94 | 1011.4 |
| 20260906062221 | 72 | 234 | 0.0 | 0.0 | 0.00 | 0.00 | 0.00 | 94 | 1011.5 |
| 20260906061717 | 72 | 234 | 0.0 | 0.0 | 0.00 | 0.00 | 0.00 | 94 | 1011.7 |
| 20260906061213 | 72 | 234 | 0.0 | 0.0 | 0.00 | 0.00 | 0.00 | 94 | 1011.7 |
| 20260906060709 | 72 | 234 | 0.0 | 0.0 | 0.00 | 0.00 | 0.00 | 94 | 1011.7 |
| 20260906060206 | 72 | 235 | 0.0 | 0.0 | 0.00 | 0.00 | 0.00 | 94 | 1012.0 |
| 20260906055701 | 72 | 235 | 1.0 | 1.0 | 0.00 | 0.00 | 0.00 | 95 | 1012.0 |
| 20260906055156 | 72 | 235 | 0.0 | 0.0 | 0.00 | 0.00 | 0.00 | 94 | 1011.8 |
| 20260906054652 | 72 | 235 | 0.0 | 0.0 | 0.00 | 0.00 | 0.00 | 94 | 1012.0 |
| 20260906054152 | 72 | 235 | 0.0 | 0.0 | 0.00 | 0.00 | 0.00 | 94 | 1012.1 |
| 20260906053649 | 72 | 235 | 0.0 | 0.0 | 0.00 | 0.00 | 0.00 | 94 | 1012.2 |
| 20260906053144 | 72 | 235 | 0.0 | 0.0 | 0.00 | 0.00 | 0.00 | 94 | 1012.3 |
| 20260906052639 | 72 | 235 | 0.0 | 0.0 | 0.00 | 0.00 | 0.00 | 94 | 1012.3 |
| 20260906052136 | 72 | 235 | 0.0 | 0.0 | 0.00 | 0.00 | 0.00 | 93 | 1012.4 |
| 20260906051632 | 72 | 235 | 0.0 | 0.0 | 0.00 | 0.00 | 0.00 | 93 | 1012.3 |
| 20260906051131 | 73 | 235 | 1.0 | 1.0 | 0.00 | 0.00 | 0.00 | 93 | 1012.4 |
| 20260906050627 | 73 | 243 | 0.0 | 0.0 | 0.00 | 0.00 | 0.00 | 92 | 1012.4 |
| 20260906050122 | 73 | 246 | 0.0 | 0.0 | 0.00 | 0.00 | 0.00 | 92 | 1012.3 |
| 20260906045620 | 73 | 262 | 1.0 | 1.0 | 0.00 | 0.00 | 0.00 | 92 | 1012.2 |
| 20260906045116 | 73 | 231 | 1.0 | 1.0 | 0.00 | 0.00 | 0.00 | 92 | 1012.3 |
| 20260906044612 | 73 | 279 | 1.0 | 1.0 | 0.00 | 0.00 | 0.00 | 91 | 1012.6 |
| 20260906044106 | 73 | 259 | 1.0 | 1.0 | 0.00 | 0.00 | 0.00 | 90 | 1012.6 |
| 20260906043603 | 73 | 216 | 1.0 | 1.0 | 0.00 | 0.00 | 0.00 | 90 | 1012.7 |
| 20260906043058 | 73 | 216 | 1.0 | 1.0 | 0.00 | 0.00 | 0.00 | 90 | 1012.7 |
| 20260906042557 | 73 | 216 | 1.0 | 1.0 | 0.00 | 0.00 | 0.00 | 91 | 1012.5 |
| 20260906042052 | 73 | 215 | 1.0 | 1.0 | 0.00 | 0.00 | 0.00 | 92 | 1012.6 |
| 20260906041548 | 73 | 215 | 1.0 | 1.0 | 0.00 | 0.00 | 0.00 | 93 | 1012.5 |
| 20260906041043 | 73 | 215 | 1.0 | 1.0 | 0.00 | 0.00 | 0.00 | 94 | 1012.7 |
| 20260906040538 | 73 | 215 | 0.0 | 0.0 | 0.00 | 0.00 | 0.00 | 93 | 1012.4 |
| 20260906040034 | 73 | 215 | 0.0 | 0.0 | 0.00 | 0.31 | 0.31 | 93 | 1012.0 |
| 20260906035529 | 73 | 215 | 0.0 | 0.0 | 0.00 | 0.31 | 0.31 | 93 | 1012.4 |
| 20260906035025 | 73 | 215 | 0.0 | 0.0 | 0.00 | 0.31 | 0.31 | 92 | 1012.3 |
| 20260906034524 | 73 | 215 | 0.0 | 0.0 | 0.00 | 0.31 | 0.31 | 91 | 1012.4 |
| 20260906034019 | 74 | 215 | 0.0 | 0.0 | 0.00 | 0.31 | 0.31 | 91 | 1012.4 |
| 20260906033514 | 74 | 215 | 0.0 | 0.0 | 0.00 | 0.31 | 0.31 | 91 | 1012.2 |
| 20260906033010 | 74 | 215 | 0.0 | 1.0 | 0.00 | 0.31 | 0.31 | 91 | 1012.2 |
| 20260906032501 | 74 | 215 | 0.0 | 0.0 | 0.00 | 0.31 | 0.31 | 91 | 1012.3 |
| 20260906032000 | 74 | 215 | 2.0 | 2.0 | 0.00 | 0.31 | 0.31 | 91 | 1012.2 |
| 20260906031456 | 74 | 215 | 0.0 | 0.0 | 0.00 | 0.31 | 0.31 | 91 | 1012.5 |
| 20260906030951 | 74 | 215 | 0.0 | 0.0 | 0.00 | 0.31 | 0.31 | 91 | 1012.4 |
| 20260906030446 | 74 | 215 | 0.0 | 1.0 | 0.00 | 0.31 | 0.31 | 92 | 1012.5 |
| 20260906025940 | 74 | 215 | 0.0 | 0.0 | 0.00 | 0.31 | 0.31 | 91 | 1012.6 |
| 20260906025439 | 74 | 215 | 0.0 | 0.0 | 0.00 | 0.31 | 0.31 | 92 | 1012.7 |
| 20260906024938 | 74 | 215 | 0.0 | 0.0 | 0.00 | 0.31 | 0.31 | 92 | 1012.5 |
| 20260906024439 | 74 | 215 | 0.0 | 0.0 | 0.00 | 0.31 | 0.31 | 91 | 1012.7 |
| 20260906023939 | 74 | 215 | 0.0 | 0.0 | 0.00 | 0.31 | 0.31 | 91 | 1012.7 |
| 20260906023436 | 74 | 215 | 0.0 | 0.0 | 0.00 | 0.31 | 0.31 | 92 | 1012.7 |
| 20260906022936 | 74 | 215 | 0.0 | 0.0 | 0.00 | 0.31 | 0.31 | 92 | 1012.8 |
| 20260906022431 | 74 | 215 | 1.0 | 1.0 | 0.00 | 0.31 | 0.31 | 91 | 1013.0 |
| 20260906021926 | 74 | 212 | 1.0 | 1.0 | 0.00 | 0.31 | 0.31 | 91 | 1012.7 |
| 20260906021427 | 74 | 94 | 1.0 | 1.0 | 0.00 | 0.31 | 0.31 | 91 | 1012.6 |
| 20260906020926 | 74 | 94 | 0.0 | 0.0 | 0.00 | 0.31 | 0.31 | 92 | 1012.6 |
| 20260906020421 | 74 | 94 | 0.0 | 0.0 | 0.00 | 0.31 | 0.31 | 93 | 1012.5 |
| 20260906015915 | 74 | 95 | 0.0 | 0.0 | 0.00 | 0.31 | 0.31 | 94 | 1012.2 |
| 20260906015415 | 74 | 94 | 0.0 | 0.0 | 0.00 | 0.31 | 0.31 | 94 | 1012.2 |
| 20260906014915 | 74 | 94 | 0.0 | 0.0 | 0.00 | 0.31 | 0.31 | 93 | 1012.3 |
| 20260906014414 | 74 | 94 | 0.0 | 0.0 | 0.00 | 0.31 | 0.31 | 94 | 1012.2 |
| 20260906013911 | 74 | 94 | 0.0 | 0.0 | 0.00 | 0.31 | 0.31 | 94 | 1012.2 |
| 20260906013406 | 74 | 94 | 0.0 | 0.0 | 0.00 | 0.31 | 0.31 | 94 | 1012.1 |
| 20260906012902 | 74 | 94 | 0.0 | 0.0 | 0.00 | 0.31 | 0.31 | 94 | 1012.1 |
| 20260906012356 | 74 | 94 | 0.0 | 0.0 | 0.00 | 0.31 | 0.31 | 94 | 1012.0 |
| 20260906011856 | 74 | 94 | 0.0 | 0.0 | 0.00 | 0.31 | 0.31 | 94 | 1011.9 |
| 20260906011351 | 75 | 94 | 0.0 | 0.0 | 0.00 | 0.31 | 0.31 | 94 | 1011.8 |
| 20260906010846 | 74 | 94 | 0.0 | 0.0 | 0.00 | 0.31 | 0.31 | 94 | 1012.0 |
| 20260906010342 | 75 | 94 | 0.0 | 0.0 | 0.00 | 0.31 | 0.31 | 93 | 1011.6 |
| 20260906005838 | 75 | 94 | 0.0 | 0.0 | 0.00 | 0.31 | 0.31 | 93 | 1011.7 |
| 20260906005337 | 75 | 94 | 0.0 | 0.0 | 0.00 | 0.31 | 0.31 | 93 | 1011.9 |
| 20260906004836 | 75 | 94 | 0.0 | 0.0 | 0.00 | 0.31 | 0.31 | 92 | 1012.0 |
| 20260906004336 | 75 | 94 | 0.0 | 0.0 | 0.00 | 0.31 | 0.31 | 93 | 1012.1 |
| 20260906003831 | 75 | 94 | 0.0 | 0.0 | 0.00 | 0.31 | 0.31 | 93 | 1012.1 |
| 20260906003326 | 75 | 94 | 0.0 | 0.0 | 0.00 | 0.31 | 0.31 | 93 | 1012.2 |
| 20260906002822 | 75 | 94 | 0.0 | 0.0 | 0.00 | 0.31 | 0.31 | 93 | 1012.2 |
| 20260906002321 | 75 | 94 | 0.0 | 1.0 | 0.00 | 0.31 | 0.31 | 93 | 1012.2 |
| 20260906001817 | 75 | 94 | 1.0 | 1.0 | 0.00 | 0.31 | 0.31 | 92 | 1012.2 |
| 20260906001313 | 75 | 94 | 0.0 | 0.0 | 0.00 | 0.31 | 0.31 | 92 | 1012.6 |
| 20260906000813 | 76 | 94 | 1.0 | 1.0 | 0.00 | 0.31 | 0.31 | 92 | 1012.4 |
| 20260906000307 | 75 | 94 | 1.0 | 2.0 | 0.00 | 0.31 | 0.31 | 92 | 1012.6 |
| 20260905235802 | 76 | 94 | 0.0 | 0.0 | 0.00 | 0.31 | 0.31 | 92 | 1012.5 |
| 20260905235306 | 76 | 94 | 0.0 | 0.0 | 0.00 | 0.31 | 0.31 | 91 | 1012.6 |
| 20260905234758 | 76 | 94 | 0.0 | 0.0 | 0.00 | 0.31 | 0.31 | 91 | 1012.3 |
| 20260905234253 | 76 | 94 | 0.0 | 0.0 | 0.00 | 0.31 | 0.31 | 90 | 1012.6 |
| 20260905233748 | 76 | 94 | 0.0 | 0.0 | 0.00 | 0.31 | 0.31 | 89 | 1012.5 |
| 20260905233248 | 76 | 94 | 0.0 | 0.0 | 0.00 | 0.31 | 0.31 | 90 | 1012.5 |
| 20260905232747 | 76 | 129 | 0.0 | 0.0 | 0.00 | 0.31 | 0.31 | 90 | 1012.4 |
| 20260905232243 | 76 | 128 | 0.0 | 0.0 | 0.00 | 0.31 | 0.31 | 91 | 1012.4 |
| 20260905231739 | 76 | 150 | 0.0 | 0.0 | 0.00 | 0.31 | 0.31 | 91 | 1012.4 |
| 20260905231234 | 76 | 150 | 0.0 | 0.0 | 0.00 | 0.31 | 0.31 | 90 | 1012.2 |
| 20260905230730 | 76 | 150 | 0.0 | 0.0 | 0.00 | 0.31 | 0.31 | 89 | 1011.9 |
| 20260905230228 | 76 | 226 | 0.0 | 0.0 | 0.00 | 0.31 | 0.31 | 88 | 1012.2 |
| 20260905225728 | 76 | 227 | 0.0 | 0.0 | 0.00 | 0.31 | 0.31 | 88 | 1011.3 |
| 20260905225223 | 76 | 228 | 1.0 | 2.0 | 0.00 | 0.31 | 0.31 | 87 | 1010.9 |
| 20260905224722 | 76 | 233 | 1.0 | 1.0 | 0.00 | 0.31 | 0.31 | 88 | 1010.9 |
| 20260905224217 | 76 | 240 | 1.0 | 1.0 | 0.00 | 0.31 | 0.31 | 89 | 1011.2 |
| 20260905223714 | 76 | 206 | 2.0 | 1.0 | 0.00 | 0.31 | 0.31 | 89 | 1011.3 |
| 20260905223210 | 76 | 267 | 2.0 | 2.0 | 0.00 | 0.31 | 0.31 | 87 | 1011.7 |
| 20260905222706 | 76 | 290 | 4.0 | 7.0 | 0.00 | 0.31 | 0.31 | 87 | 1011.7 |
| 20260905222205 | 76 | 247 | 0.0 | 0.0 | 0.00 | 0.31 | 0.31 | 86 | 1011.8 |
| 20260905221700 | 76 | 226 | 3.0 | 4.0 | 0.00 | 0.31 | 0.31 | 86 | 1011.5 |
| 20260905221157 | 76 | 219 | 1.0 | 1.0 | 0.00 | 0.31 | 0.31 | 85 | 1011.5 |
| 20260905220653 | 75 | 198 | 2.0 | 2.0 | 0.00 | 0.31 | 0.31 | 92 | 1011.6 |
| 20260905220149 | 75 | 88 | 1.0 | 1.0 | 0.00 | 0.31 | 0.31 | 94 | 1011.5 |
| 20260905215648 | 73 | 87 | 0.0 | 0.0 | 0.05 | 0.31 | 0.31 | 92 | 1011.2 |
| 20260905215144 | 73 | 87 | 0.0 | 0.0 | 0.24 | 0.31 | 0.31 | 88 | 1010.8 |
| 20260905214641 | 74 | 75 | 0.0 | 0.0 | 0.85 | 0.30 | 0.30 | 85 | 1010.5 |
| 20260905214141 | 75 | 74 | 0.0 | 0.0 | 1.44 | 0.28 | 0.28 | 77 | 1011.1 |
| 20260905213636 | 76 | 329 | 4.0 | 6.0 | 0.83 | 0.14 | 0.14 | 73 | 1011.4 |
| 20260905213131 | 82 | 204 | 6.0 | 9.0 | 0.00 | 0.00 | 0.00 | 61 | 1011.1 |
| 20260905212626 | 85 | 356 | 5.0 | 11.0 | 0.00 | 0.00 | 0.00 | 56 | 1011.8 |
| 20260905212126 | 86 | 55 | 4.0 | 4.0 | 0.00 | 0.00 | 0.00 | 52 | 1012.1 |
| 20260905211621 | 88 | 38 | 3.0 | 7.0 | 0.00 | 0.00 | 0.00 | 49 | 1011.5 |
| 20260905211117 | 89 | 26 | 2.0 | 2.0 | 0.00 | 0.00 | 0.00 | 48 | 1010.6 |
| 20260905210613 | 89 | 134 | 3.0 | 7.0 | 0.00 | 0.00 | 0.00 | 49 | 1010.3 |
| 20260905210107 | 88 | 49 | 2.0 | 2.0 | 0.00 | 0.00 | 0.00 | 48 | 1010.5 |
| 20260905205606 | 88 | 35 | 2.0 | 4.0 | 0.00 | 0.00 | 0.00 | 47 | 1010.7 |
| 20260905205107 | 91 | 347 | 5.0 | 8.0 | 0.00 | 0.00 | 0.00 | 41 | 1011.5 |
| 20260905204606 | 94 | 355 | 4.0 | 9.0 | 0.00 | 0.00 | 0.00 | 38 | 1011.1 |
| 20260905204102 | 100 | 144 | 9.0 | 13.0 | 0.00 | 0.00 | 0.00 | 35 | 1011.1 |
| 20260905203602 | 102 | 50 | 3.0 | 4.0 | 0.00 | 0.00 | 0.00 | 37 | 1010.6 |
| 20260905203057 | 102 | 23 | 1.0 | 1.0 | 0.00 | 0.00 | 0.00 | 36 | 1010.4 |
| 20260905202553 | 102 | 33 | 1.0 | 1.0 | 0.00 | 0.00 | 0.00 | 37 | 1010.3 |
| 20260905202048 | 100 | 66 | 0.0 | 1.0 | 0.00 | 0.00 | 0.00 | 39 | 1010.0 |
| 20260905201543 | 101 | 135 | 2.0 | 2.0 | 0.00 | 0.00 | 0.00 | 38 | 1010.2 |
| 20260905201043 | 102 | 206 | 1.0 | 1.0 | 0.00 | 0.00 | 0.00 | 37 | 1010.4 |
| 20260905200538 | 102 | 124 | 3.0 | 4.0 | 0.00 | 0.00 | 0.00 | 36 | 1010.5 |
| 20260905200038 | 103 | 216 | 2.0 | 2.0 | 0.00 | 0.00 | 0.00 | 37 | 1010.3 |
| 20260905195532 | 103 | 210 | 1.0 | 2.0 | 0.00 | 0.00 | 0.00 | 37 | 1010.5 |
| 20260905195028 | 103 | 227 | 2.0 | 2.0 | 0.00 | 0.00 | 0.00 | 37 | 1010.3 |
| 20260905194527 | 102 | 240 | 1.0 | 1.0 | 0.00 | 0.00 | 0.00 | 38 | 1010.5 |
| 20260905194027 | 103 | 190 | 2.0 | 2.0 | 0.00 | 0.00 | 0.00 | 36 | 1010.5 |
| 20260905193521 | 105 | 292 | 2.0 | 2.0 | 0.00 | 0.00 | 0.00 | 34 | 1010.7 |
| 20260905193017 | 104 | 30 | 1.0 | 2.0 | 0.00 | 0.00 | 0.00 | 35 | 1010.6 |
| 20260905192513 | 103 | 241 | 1.0 | 1.0 | 0.00 | 0.00 | 0.00 | 35 | 1010.5 |
| 20260905192009 | 103 | 207 | 1.0 | 1.0 | 0.00 | 0.00 | 0.00 | 38 | 1010.7 |
| 20260905191507 | 104 | 238 | 1.0 | 1.0 | 0.00 | 0.00 | 0.00 | 37 | 1010.9 |
| 20260905191006 | 103 | 211 | 2.0 | 2.0 | 0.00 | 0.00 | 0.00 | 38 | 1010.9 |
| 20260905190504 | 103 | 206 | 3.0 | 4.0 | 0.00 | 0.00 | 0.00 | 38 | 1010.8 |
| 20260905190003 | 103 | 251 | 2.0 | 2.0 | 0.00 | 0.00 | 0.00 | 38 | 1011.0 |
| 20260905185458 | 104 | 303 | 2.0 | 2.0 | 0.00 | 0.00 | 0.00 | 37 | 1011.1 |
| 20260905184957 | 104 | 253 | 0.0 | 0.0 | 0.00 | 0.00 | 0.00 | 38 | 1011.1 |
| 20260905184452 | 103 | 180 | 1.0 | 2.0 | 0.00 | 0.00 | 0.00 | 38 | 1011.2 |
| 20260905183950 | 102 | 229 | 1.0 | 1.0 | 0.00 | 0.00 | 0.00 | 41 | 1011.4 |
| 20260905183445 | 100 | 33 | 2.0 | 2.0 | 0.00 | 0.00 | 0.00 | 41 | 1011.2 |
| 20260905182940 | 99 | 148 | 4.0 | 6.0 | 0.00 | 0.00 | 0.00 | 41 | 1011.6 |
| 20260905182439 | 99 | 247 | 2.0 | 2.0 | 0.00 | 0.00 | 0.00 | 43 | 1011.9 |
| 20260905181935 | 99 | 274 | 0.0 | 0.0 | 0.00 | 0.00 | 0.00 | 43 | 1012.0 |
| 20260905181435 | 102 | 284 | 1.0 | 2.0 | 0.00 | 0.00 | 0.00 | 39 | 1012.1 |
| 20260905180934 | 103 | 327 | 2.0 | 2.0 | 0.00 | 0.00 | 0.00 | 39 | 1012.0 |
| 20260905180429 | 101 | 265 | 0.0 | 0.0 | 0.00 | 0.00 | 0.00 | 42 | 1012.0 |
| 20260905175924 | 100 | 175 | 1.0 | 1.0 | 0.00 | 0.00 | 0.00 | 41 | 1012.2 |
| 20260905175423 | 100 | 282 | 2.0 | 2.0 | 0.00 | 0.00 | 0.00 | 43 | 1012.3 |
| 20260905174919 | 101 | 223 | 2.0 | 2.0 | 0.00 | 0.00 | 0.00 | 41 | 1012.4 |
| 20260905174414 | 101 | 225 | 1.0 | 1.0 | 0.00 | 0.00 | 0.00 | 43 | 1012.4 |
| 20260905173910 | 101 | 220 | 1.0 | 1.0 | 0.00 | 0.00 | 0.00 | 43 | 1012.4 |
| 20260905173406 | 100 | 18 | 1.0 | 1.0 | 0.00 | 0.00 | 0.00 | 43 | 1012.5 |
| 20260905172901 | 98 | 231 | 1.0 | 1.0 | 0.00 | 0.00 | 0.00 | 44 | 1012.7 |
| 20260905172359 | 97 | 9 | 1.0 | 1.0 | 0.00 | 0.00 | 0.00 | 46 | 1012.6 |
| 20260905171855 | 99 | 335 | 1.0 | 1.0 | 0.00 | 0.00 | 0.00 | 44 | 1012.7 |
| 20260905171351 | 98 | 219 | 2.0 | 2.0 | 0.00 | 0.00 | 0.00 | 45 | 1013.0 |
| 20260905170848 | 97 | 216 | 1.0 | 2.0 | 0.00 | 0.00 | 0.00 | 47 | 1013.0 |
| 20260905170344 | 98 | 220 | 2.0 | 2.0 | 0.00 | 0.00 | 0.00 | 45 | 1013.0 |
| 20260905165842 | 97 | 261 | 0.0 | 0.0 | 0.00 | 0.00 | 0.00 | 47 | 1013.1 |
| 20260905165338 | 97 | 177 | 3.0 | 4.0 | 0.00 | 0.00 | 0.00 | 48 | 1013.0 |
| 20260905164838 | 96 | 215 | 3.0 | 4.0 | 0.00 | 0.00 | 0.00 | 50 | 1013.4 |
| 20260905164333 | 96 | 254 | 1.0 | 1.0 | 0.00 | 0.00 | 0.00 | 51 | 1013.5 |
| 20260905163828 | 98 | 197 | 0.0 | 1.0 | 0.00 | 0.00 | 0.00 | 48 | 1013.5 |
| 20260905163325 | 98 | 212 | 0.0 | 0.0 | 0.00 | 0.00 | 0.00 | 48 | 1013.5 |
| 20260905162820 | 96 | 204 | 1.0 | 1.0 | 0.00 | 0.00 | 0.00 | 51 | 1013.7 |
| 20260905162315 | 95 | 33 | 1.0 | 1.0 | 0.00 | 0.00 | 0.00 | 53 | 1013.8 |
| 20260905161815 | 95 | 219 | 1.0 | 1.0 | 0.00 | 0.00 | 0.00 | 53 | 1013.6 |
| 20260905161314 | 94 | 204 | 1.0 | 1.0 | 0.00 | 0.00 | 0.00 | 54 | 1013.7 |
| 20260905160812 | 94 | 257 | 2.0 | 3.0 | 0.00 | 0.00 | 0.00 | 55 | 1013.7 |
| 20260905160307 | 94 | 262 | 0.0 | 0.0 | 0.00 | 0.00 | 0.00 | 55 | 1013.8 |
| 20260905155801 | 94 | 244 | 2.0 | 2.0 | 0.00 | 0.00 | 0.00 | 55 | 1013.8 |
| 20260905155301 | 94 | 217 | 2.0 | 3.0 | 0.00 | 0.00 | 0.00 | 54 | 1013.8 |
| 20260905154755 | 93 | 303 | 2.0 | 3.0 | 0.00 | 0.00 | 0.00 | 56 | 1014.1 |
| 20260905154251 | 93 | 229 | 2.0 | 2.0 | 0.00 | 0.00 | 0.00 | 57 | 1014.1 |
| 20260905153746 | 92 | 225 | 2.0 | 2.0 | 0.00 | 0.00 | 0.00 | 57 | 1013.9 |
| 20260905153242 | 92 | 208 | 2.0 | 2.0 | 0.00 | 0.00 | 0.00 | 58 | 1014.3 |
| 20260905152737 | 92 | 230 | 2.0 | 3.0 | 0.00 | 0.00 | 0.00 | 57 | 1014.3 |
| 20260905152236 | 92 | 286 | 1.0 | 2.0 | 0.00 | 0.00 | 0.00 | 57 | 1014.1 |
| 20260905151736 | 91 | 236 | 2.0 | 3.0 | 0.00 | 0.00 | 0.00 | 59 | 1014.4 |
| 20260905151233 | 91 | 254 | 2.0 | 4.0 | 0.00 | 0.00 | 0.00 | 59 | 1014.2 |
| 20260905150732 | 91 | 230 | 1.0 | 1.0 | 0.00 | 0.00 | 0.00 | 60 | 1014.4 |
| 20260905150231 | 91 | 229 | 2.0 | 2.0 | 0.00 | 0.00 | 0.00 | 61 | 1014.4 |
| 20260905145729 | 91 | 216 | 2.0 | 2.0 | 0.00 | 0.00 | 0.00 | 61 | 1014.5 |
| 20260905145224 | 89 | 195 | 3.0 | 4.0 | 0.00 | 0.00 | 0.00 | 63 | 1014.6 |
| 20260905144723 | 89 | 230 | 2.0 | 2.0 | 0.00 | 0.00 | 0.00 | 65 | 1014.6 |
| 20260905144218 | 89 | 195 | 1.0 | 1.0 | 0.00 | 0.00 | 0.00 | 64 | 1014.5 |
| 20260905143717 | 89 | 249 | 2.0 | 2.0 | 0.00 | 0.00 | 0.00 | 65 | 1014.9 |
| 20260905143217 | 89 | 274 | 2.0 | 2.0 | 0.00 | 0.00 | 0.00 | 65 | 1014.9 |
| 20260905142715 | 88 | 237 | 1.0 | 1.0 | 0.00 | 0.00 | 0.00 | 68 | 1014.6 |
| 20260905142210 | 87 | 292 | 1.0 | 1.0 | 0.00 | 0.00 | 0.00 | 69 | 1014.6 |
| 20260905141706 | 87 | 314 | 2.0 | 2.0 | 0.00 | 0.00 | 0.00 | 70 | 1014.6 |
| 20260905141203 | 86 | 201 | 2.0 | 2.0 | 0.00 | 0.00 | 0.00 | 70 | 1014.5 |
| 20260905140657 | 86 | 203 | 1.0 | 1.0 | 0.00 | 0.00 | 0.00 | 71 | 1014.7 |
| 20260905140157 | 86 | 208 | 2.0 | 2.0 | 0.00 | 0.00 | 0.00 | 71 | 1014.5 |
| 20260905135652 | 86 | 229 | 1.0 | 1.0 | 0.00 | 0.00 | 0.00 | 71 | 1014.6 |
| 20260905135148 | 85 | 203 | 1.0 | 2.0 | 0.00 | 0.00 | 0.00 | 73 | 1014.9 |
| 20260905134647 | 86 | 189 | 1.0 | 1.0 | 0.00 | 0.00 | 0.00 | 74 | 1014.6 |
| 20260905134146 | 84 | 192 | 0.0 | 0.0 | 0.00 | 0.00 | 0.00 | 75 | 1014.6 |
| 20260905133642 | 84 | 200 | 2.0 | 2.0 | 0.00 | 0.00 | 0.00 | 76 | 1014.7 |
| 20260905133141 | 84 | 286 | 2.0 | 2.0 | 0.00 | 0.00 | 0.00 | 77 | 1014.7 |
| 20260905132641 | 83 | 306 | 3.0 | 3.0 | 0.00 | 0.00 | 0.00 | 77 | 1014.7 |
| 20260905132136 | 83 | 187 | 2.0 | 2.0 | 0.00 | 0.00 | 0.00 | 79 | 1014.8 |
| 20260905131631 | 82 | 254 | 2.0 | 3.0 | 0.00 | 0.00 | 0.00 | 80 | 1014.7 |
| 20260905131127 | 82 | 235 | 2.0 | 3.0 | 0.00 | 0.00 | 0.00 | 80 | 1014.7 |
| 20260905130627 | 81 | 261 | 1.0 | 1.0 | 0.00 | 0.00 | 0.00 | 82 | 1014.9 |
| 20260905130127 | 80 | 258 | 1.0 | 1.0 | 0.00 | 0.00 | 0.00 | 84 | 1014.9 |
| 20260905125626 | 80 | 266 | 1.0 | 1.0 | 0.00 | 0.00 | 0.00 | 85 | 1015.0 |
| 20260905125122 | 80 | 268 | 3.0 | 3.0 | 0.00 | 0.00 | 0.00 | 85 | 1014.9 |
| 20260905124619 | 80 | 241 | 1.0 | 1.0 | 0.00 | 0.00 | 0.00 | 86 | 1015.1 |
| 20260905124114 | 79 | 225 | 1.0 | 1.0 | 0.00 | 0.00 | 0.00 | 86 | 1014.9 |
| 20260905123609 | 79 | 272 | 1.0 | 1.0 | 0.00 | 0.00 | 0.00 | 87 | 1015.0 |
| 20260905123107 | 79 | 286 | 1.0 | 2.0 | 0.00 | 0.00 | 0.00 | 87 | 1015.0 |
| 20260905122606 | 79 | 300 | 2.0 | 2.0 | 0.00 | 0.00 | 0.00 | 88 | 1014.7 |
| 20260905122106 | 78 | 227 | 1.0 | 1.0 | 0.00 | 0.00 | 0.00 | 88 | 1014.6 |
| 20260905121601 | 78 | 208 | 1.0 | 1.0 | 0.00 | 0.00 | 0.00 | 88 | 1014.7 |
| 20260905121056 | 78 | 211 | 1.0 | 1.0 | 0.00 | 0.00 | 0.00 | 88 | 1014.6 |
| 20260905120555 | 78 | 251 | 2.0 | 1.0 | 0.00 | 0.00 | 0.00 | 89 | 1014.5 |
| 20260905120051 | 78 | 265 | 2.0 | 2.0 | 0.00 | 0.00 | 0.00 | 89 | 1014.6 |
| 20260905115550 | 78 | 216 | 2.0 | 2.0 | 0.00 | 0.00 | 0.00 | 90 | 1014.5 |
| 20260905115045 | 77 | 247 | 2.0 | 3.0 | 0.00 | 0.00 | 0.00 | 90 | 1014.4 |
| 20260905114544 | 77 | 243 | 1.0 | 1.0 | 0.00 | 0.00 | 0.00 | 90 | 1014.3 |
| 20260905114043 | 77 | 245 | 1.0 | 1.0 | 0.00 | 0.00 | 0.00 | 91 | 1014.5 |
| 20260905113538 | 77 | 260 | 1.0 | 1.0 | 0.00 | 0.00 | 0.00 | 91 | 1014.5 |
| 20260905113033 | 77 | 260 | 1.0 | 1.0 | 0.00 | 0.00 | 0.00 | 91 | 1014.3 |
| 20260905112529 | 77 | 260 | 1.0 | 1.0 | 0.00 | 0.00 | 0.00 | 91 | 1014.2 |
| 20260905112024 | 77 | 260 | 0.0 | 0.0 | 0.00 | 0.00 | 0.00 | 91 | 1014.1 |
| 20260905111519 | 77 | 261 | 1.0 | 1.0 | 0.00 | 0.00 | 0.00 | 91 | 1014.4 |
| 20260905111018 | 77 | 262 | 0.0 | 1.0 | 0.00 | 0.00 | 0.00 | 91 | 1014.2 |
| 20260905110517 | 77 | 262 | 1.0 | 1.0 | 0.00 | 0.00 | 0.00 | 91 | 1014.2 |
| 20260905110013 | 77 | 280 | 1.0 | 1.0 | 0.00 | 0.00 | 0.00 | 91 | 1014.2 |
| 20260905105507 | 77 | 281 | 0.0 | 0.0 | 0.00 | 0.00 | 0.00 | 91 | 1014.1 |
| 20260905105001 | 77 | 281 | 2.0 | 2.0 | 0.00 | 0.00 | 0.00 | 91 | 1014.1 |
| 20260905104457 | 77 | 281 | 1.0 | 1.0 | 0.00 | 0.00 | 0.00 | 91 | 1013.9 |
| 20260905103957 | 77 | 281 | 1.0 | 1.0 | 0.00 | 0.00 | 0.00 | 91 | 1013.9 |
| 20260905103452 | 77 | 282 | 1.0 | 1.0 | 0.00 | 0.00 | 0.00 | 91 | 1013.9 |
| 20260905102948 | 77 | 282 | 1.0 | 1.0 | 0.00 | 0.00 | 0.00 | 91 | 1013.9 |
| 20260905102444 | 77 | 297 | 2.0 | 2.0 | 0.00 | 0.00 | 0.00 | 91 | 1014.0 |
| 20260905101939 | 77 | 312 | 1.0 | 1.0 | 0.00 | 0.00 | 0.00 | 91 | 1013.7 |
| 20260905101438 | 77 | 268 | 1.0 | 1.0 | 0.00 | 0.00 | 0.00 | 90 | 1013.7 |
| 20260905100937 | 77 | 282 | 1.0 | 1.0 | 0.00 | 0.00 | 0.00 | 90 | 1013.9 |
| 20260905100433 | 77 | 274 | 1.0 | 1.0 | 0.00 | 0.00 | 0.00 | 90 | 1013.9 |
| 20260905095932 | 77 | 279 | 1.0 | 1.0 | 0.00 | 0.00 | 0.00 | 90 | 1013.9 |
| 20260905095433 | 77 | 279 | 0.0 | 0.0 | 0.00 | 0.00 | 0.00 | 90 | 1013.6 |
| 20260905094933 | 77 | 279 | 0.0 | 0.0 | 0.00 | 0.00 | 0.00 | 90 | 1013.8 |
| 20260905094429 | 77 | 279 | 1.0 | 1.0 | 0.00 | 0.00 | 0.00 | 90 | 1013.9 |
| 20260905093927 | 77 | 279 | 0.0 | 1.0 | 0.00 | 0.00 | 0.00 | 89 | 1013.9 |
| 20260905093423 | 78 | 279 | 1.0 | 1.0 | 0.00 | 0.00 | 0.00 | 89 | 1013.6 |
| 20260905092918 | 78 | 300 | 1.0 | 1.0 | 0.00 | 0.00 | 0.00 | 89 | 1013.7 |
| 20260905092413 | 78 | 316 | 1.0 | 1.0 | 0.00 | 0.00 | 0.00 | 89 | 1013.7 |
| 20260905091909 | 78 | 264 | 1.0 | 2.0 | 0.00 | 0.00 | 0.00 | 89 | 1013.6 |
| 20260905091409 | 78 | 256 | 2.0 | 2.0 | 0.00 | 0.00 | 0.00 | 89 | 1013.7 |
| 20260905090908 | 78 | 247 | 2.0 | 1.0 | 0.00 | 0.00 | 0.00 | 88 | 1013.7 |